Johnstown, PA

3:58 PM EST on December 06, 2019 (GMT -0500)
Johnstown-Cambria County

Weather History for KJST - November, 2019

Change the Weather History Date:

Saturday, November 16, 2019

  Actual Average Record
Temperature  
Mean Temperature 30 °F 40 °F  
Max Temperature 36 °F 45 °F 77 °F (1956)
Min Temperature 25 °F 34 °F 7 °F (1908)
Degree Days  
Heating Degree Days 34 26  
Month to date heating degree days 471 360  
Since 1 July heating degree days 903 1059  
Cooling Degree Days 0 0  
Month to date cooling degree days 0 0  
Year to date cooling degree days 564 388  
Moisture  
Dew Point 13 °F    
Average Humidity 54    
Maximum Humidity 82    
Minimum Humidity 23    
Precipitation  
Precipitation 0.00 in 0.12 in 2.00 in (1985)
Month to date precipitation 0.38 1.89  
Year to date precipitation 35.02 36.72  
Sea Level Pressure  
Sea Level Pressure 30.33 in    
Wind  
Wind Speed 7 mph ()    
Max Wind Speed 14 mph    
Max Gust Speed 21 mph    
Visibility 9.9 miles    
Events      
T = Trace of Precipitation, MM = Missing Value Source: Averaged Metar Reports

Daily Weather History Graph

Daily Weather History Graph

Search for Another Location

Airport or City:

Astronomy

Nov. 16, 2019 Rise Set
Actual Time 7:02 AM EST 4:57 PM EST
Civil Twilight 6:32 AM EST 5:26 PM EST
Nautical Twilight 5:59 AM EST 5:59 PM EST
Astronomical Twilight 5:27 AM EST 6:31 PM EST
Moon 8:28 PM EST (11/16) 10:54 AM EST (11/16)
Length of Visible Light 10h 53m
Length of Day
9h 55m
Waning Gibbous, 82% of the Moon is Illuminated
Nov 16
Waning Gibbous
Nov 19
Last Quarter
Nov 26
New
Dec 4
First Quarter
Dec 12
Full

Hourly Weather History & Observations

Time (EST) Temp. Windchill Dew Point Humidity Pressure Visibility Wind Dir Wind Speed Gust Speed Precip Events Conditions
12:54 AM 30.0 °F 22.4 °F 25.0 °F 82% 30.30 in 9.0 mi North 8.1 mph - N/A   Overcast
1:02 AM 30.0 °F 21.1 °F 25.0 °F 82% 30.24 in 9.0 mi North 10.4 mph - N/A   Overcast
1:54 AM 30.0 °F 21.1 °F 21.9 °F 72% 30.30 in 10.0 mi NNE 10.4 mph - N/A   Mostly Cloudy
2:11 AM 28.9 °F 21.1 °F 21.0 °F 72% 30.23 in 10.0 mi NNE 8.1 mph - N/A   Scattered Clouds
2:54 AM 28.0 °F 20.8 °F 19.9 °F 72% 30.30 in 10.0 mi NNE 6.9 mph - N/A   Clear
3:54 AM 28.0 °F 20.8 °F 19.9 °F 72% 30.28 in 10.0 mi North 6.9 mph - N/A   Clear
4:54 AM 27.0 °F 18.0 °F 19.0 °F 72% 30.29 in 10.0 mi NNE 9.2 mph - N/A   Clear
5:54 AM 27.0 °F 17.3 °F 19.0 °F 72% 30.32 in 10.0 mi NNE 10.4 mph - N/A   Clear
6:54 AM 25.0 °F 17.1 °F 19.0 °F 78% 30.35 in 10.0 mi NE 6.9 mph - N/A   Clear
7:54 AM 26.1 °F 19.4 °F 19.0 °F 75% 30.39 in 10.0 mi East 5.8 mph - N/A   Clear
8:20 AM 27.0 °F 18.7 °F 19.0 °F 72% 30.31 in 10.0 mi East 8.1 mph - N/A   Mostly Cloudy
8:54 AM 28.9 °F 21.1 °F 19.9 °F 69% 30.39 in 10.0 mi ENE 8.1 mph - N/A   Mostly Cloudy
9:01 AM 28.9 °F 20.4 °F 19.9 °F 69% 30.31 in 10.0 mi ENE 9.2 mph 18.4 mph N/A   Scattered Clouds
9:54 AM 30.0 °F 21.1 °F 17.1 °F 59% 30.40 in 10.0 mi East 10.4 mph - N/A   Clear
10:54 AM 32.0 °F 25.6 °F 16.0 °F 52% 30.39 in 10.0 mi ENE 6.9 mph - N/A   Clear
11:54 AM 33.1 °F 24.4 °F 14.0 °F 46% 30.37 in 10.0 mi East 11.5 mph - N/A   Clear
12:54 PM 34.0 °F 26.6 °F 10.9 °F 38% 30.34 in 10.0 mi ENE 9.2 mph - N/A   Clear
1:54 PM 35.1 °F 27.4 °F 6.1 °F 30% 30.32 in 10.0 mi ENE 10.4 mph - N/A   Clear
2:54 PM 36.0 °F 30.3 °F 1.9 °F 24% 30.32 in 10.0 mi East 6.9 mph - N/A   Clear
3:54 PM 35.1 °F 30.1 °F 3.0 °F 26% 30.33 in 10.0 mi ESE 5.8 mph - N/A   Clear
4:54 PM 32.0 °F 25.6 °F 5.0 °F 32% 30.34 in 10.0 mi East 6.9 mph - N/A   Clear
5:54 PM 30.0 °F 22.4 °F 6.1 °F 36% 30.35 in 10.0 mi East 8.1 mph - N/A   Clear
6:54 PM 28.9 °F 23.9 °F 7.0 °F 40% 30.36 in 10.0 mi East 4.6 mph - N/A   Clear
7:54 PM 28.9 °F 21.1 °F 8.1 °F 41% 30.35 in 10.0 mi East 8.1 mph - N/A   Clear
8:54 PM 28.0 °F 20.8 °F 3.9 °F 36% 30.34 in 10.0 mi ESE 6.9 mph - N/A   Clear
9:54 PM 27.0 °F 20.5 °F 1.0 °F 33% 30.33 in 10.0 mi ESE 5.8 mph - N/A   Clear
10:54 PM 27.0 °F 19.5 °F -0.0 °F 31% 30.32 in 10.0 mi SE 6.9 mph - N/A   Clear
11:54 PM 26.1 °F 17.6 °F -0.0 °F 32% 30.31 in 10.0 mi SE 8.1 mph - N/A   Clear